CAPE
2 2 0 0 0 0 0 0 0 0 0 0 0 0 0 0 0 0 0 0 0 0 0 0 0 0 0 0 0 0 19 66 73 80 57 70 11 32 24 28 48 71 56 83 125 143 188 1217 600 401 1328 1555 1285 1149
4 1 0 0 0 0 0 0 0 0 0 0 0 0 0 0 0 0 0 0 0 0 0 0 0 0 0 0 0 0 1 0 0 178 179 129 88 34 74 17 30 32 210 39 73 109 1021 1603 1754 1777 2116 2104 1640 1408
4 2 1 0 0 0 0 0 0 0 0 0 0 0 0 0 0 0 0 0 0 0 0 0 0 0 0 0 0 0 0 0 0 0 52 152 213 76 80 131 158 264 415 220 34 464 1325 1792 1735 1983 2291 2242 1655 1411
4 3 1 0 0 0 0 0 0 0 0 0 0 0 0 0 0 0 0 0 0 0 0 0 0 0 0 0 0 0 0 0 0 0 3 98 144 11 52 55 84 176 267 604 410 877 1009 1516 1827 2047 2297 2113 1842 1400
4 2 1 0 0 0 0 0 0 0 0 0 0 0 0 0 0 0 0 0 0 0 0 0 0 0 0 0 0 0 0 0 0 0 0 44 8 33 30 12 5 212 296 111 398 1201 1317 1719 1743 2126 2294 2103 1969 1691
6 2 0 0 0 0 0 0 0 0 0 0 0 0 0 0 0 0 0 0 0 0 0 0 0 0 0 0 0 0 0 0 0 0 0 0 0 6 42 39 250 433 638 567 792 1042 1389 1450 1396 1700 1953 1908 1860 1561
2 0 1 0 0 0 0 0 0 0 0 0 0 0 0 0 0 0 0 0 0 0 0 0 0 0 0 0 0 0 0 0 0 0 0 0 0 0 14 7 48 428 392 473 692 857 639 827 810 1028 1402 1238 880 841
3 1 0 0 0 0 0 0 0 0 0 0 0 0 0 0 0 0 0 0 0 0 0 0 0 0 5 0 1 0 0 0 0 0 0 0 0 0 0 0 29 23 11 44 278 685 424 651 696 715 661 672 638 562
2 1 0 0 0 1 0 0 0 0 0 0 0 0 0 0 0 1 0 0 0 0 0 0 0 12 30 29 25 22 0 0 0 0 0 0 0 0 0 0 0 0 8 5 0 90 230 595 521 467 294 44 4 0
2 0 0 0 3 8 0 0 0 0 0 0 0 0 0 0 0 0 0 0 0 0 0 0 0 0 53 252 180 130 153 63 41 1 0 0 0 0 0 0 0 0 0 0 0 0 35 409 421 224 115 37 16 0
4 6 6 7 4 0 0 1 0 0 0 0 0 3 0 0 2 2 0 0 0 0 0 0 0 0 18 140 88 188 151 137 73 89 0 4 0 0 0 0 0 0 0 14 124 167 222 234 167 109 77 49 42 22
12 8 8 0 0 0 1 0 0 0 0 0 0 0 0 6 1 1 0 0 0 0 0 0 0 0 1 232 214 199 85 115 56 170 34 6 99 135 39 5 1 0 0 0 0 0 0 0 0 12 30 39 31 24
0 3 0 0 0 0 0 0 0 0 0 0 0 1 8 2 0 0 0 0 0 0 2 6 0 0 21 294 231 178 78 57 164 61 64 190 261 180 171 118 12 0 0 0 0 0 0 0 0 1 4 1 0 0
11 0 2 0 0 1 0 0 0 0 0 2 10 0 2 0 0 0 0 4 6 7 37 144 34 6 145 200 140 50 116 117 35 46 137 233 286 234 91 0 0 0 0 0 9 14 11 9 7 4 1 0 0 0
18 23 5 10 5 6 0 0 0 0 0 7 7 0 0 2 1 0 0 0 0 0 22 194 97 180 151 107 84 66 66 41 59 139 348 177 128 33 0 3 0 0 0 12 35 24 4 0 0 0 0 0 0 0
1 10 1 16 17 0 0 0 0 0 0 5 5 7 10 10 13 2 2 3 4 52 200 186 96 82 43 44 19 21 0 14 111 378 337 283 158 119 8 0 1 3 10 32 18 1 1 6 12 11 8 7 8 7
8 17 0 39 5 0 0 0 0 0 1 9 16 15 21 20 27 50 47 77 95 184 185 133 16 23 117 85 29 25 45 142 319 303 238 165 16 0 0 2 3 2 2 3 91 29 29 26 37 26 13 12 5 20
4 45 2 1 1 1 0 0 0 1 2 10 15 15 12 2 16 89 123 154 103 163 88 75 129 54 51 44 83 153 292 249 175 118 8 1 1 6 9 1 8 1 3 8 26 30 35 32 33 19 18 25 22 8
5 2 0 0 0 0 0 0 1 16 12 18 8 2 26 52 155 38 4 0 0 35 90 109 43 34 49 120 127 220 176 103 57 6 0 10 11 12 11 10 14 32 38 37 32 22 26 7 5 4 2 2 1 2
6 1 0 0 1 18 0 0 0 4 17 20 41 49 65 44 4 1 0 0 0 10 28 48 87 213 148 135 185 104 25 0 0 0 0 29 15 5 8 1 5 25 38 38 30 1 3 5 5 4 2 4 5 3
0 0 0 0 17 28 29 31 2 6 25 43 86 28 4 42 7 0 12 0 2 19 24 37 54 82 104 60 11 0 2 0 0 2 0 1 1 2 1 1 1 1 5 10 4 0 2 3 1 3 1 2 3 3
1 0 0 1 20 41 49 22 39 51 35 73 94 92 64 34 19 5 0 5 13 13 0 1 5 3 1 0 3 2 3 2 1 6 0 1 1 3 2 14 14 8 3 1 1 1 13 1 6 1 1 0 0 0
0 1 3 16 39 18 47 61 68 55 63 28 14 16 16 9 1 0 0 0 2 0 0 0 0 1 2 9 8 5 6 18 12 1 1 3 6 5 8 25 22 2 11 1 0 0 3 1 0 0 3 12 25 26
0 0 18 24 19 35 17 23 12 11 12 7 0 11 12 6 0 0 0 0 0 0 0 1 5 18 22 0 6 20 2 1 6 1 3 10 21 38 38 34 29 24 19 18 11 11 10 15 8 2 19 21 18 18
0 0 0 0 0 16 11 11 1 1 2 1 0 0 1 0 0 0 0 2 3 3 6 26 13 18 2 5 0 1 1 20 11 19 12 33 10 9 6 13 23 31 6 6 12 10 18 21 17 13 11 12 13 13
0 5 4 21 13 21 6 2 0 0 1 0 0 3 2 10 1 0 3 16 7 5 35 32 11 1 3 9 18 44 40 49 57 25 22 33 8 20 35 26 20 30 67 53 51 42 36 28 29 34 30 14 4 25
0 6 4 2 4 2 2 1 1 1 0 0 7 10 8 2 0 0 6 13 8 29 26 9 0 0 7 12 56 60 45 59 33 34 43 47 56 36 51 40 36 35 49 94 87 78 71 55 37 24 35 29 33 46
9 1 0 1 2 0 0 9 1 0 3 4 13 14 6 5 12 15 3 29 31 21 5 0 0 0 12 67 54 48 60 57 69 69 67 66 76 83 99 99 97 0 55 23 21 41 53 50 51 40 29 31 30 23
1 7 1 1 1 2 2 3 8 4 0 11 8 3 1 1 0 5 17 34 6 7 2 3 8 11 4 17 47 65 75 69 53 50 49 27 34 52 58 39 21 24 29 21 0 0 14 43 23 19 18 23 29 33
3 1 1 1 1 1 2 0 4 4 0 0 0 1 1 15 23 31 32 27 3 7 2 2 8 4 9 22 34 32 39 49 48 52 39 30 21 20 4 2 5 23 30 26 32 21 0 7 6 14 20 30 38 37
0 1 2 1 2 3 2 6 2 1 1 6 3 4 3 1 0 7 23 30 7 17 10 33 48 53 51 45 51 58 67 41 43 63 71 53 32 14 13 23 36 36 27 22 25 38 29 27 39 41 38 21 6 1
1 1 2 2 0 5 6 5 8 9 5 1 4 4 2 1 1 1 0 0 23 47 50 51 59 58 49 49 47 54 12 43 72 43 30 31 42 55 40 13 12 23 22 35 36 28 23 12 16 7 9 7 1 0
1 11 11 15 8 12 0 12 18 21 18 19 18 22 17 20 30 26 18 28 46 60 60 46 41 31 35 33 26 20 5 10 0 0 0 0 0 25 73 38 40 44 28 12 3 1 0 0 0 0 0 0 0 0
CIN
-0 -0 -0 -0 -0 -0 -0 -0 -0 -0 -0 -0 -0 -0 -0 -0 -0 -0 -0 -0 -0 -0 -0 -0 -0 -0 -0 -0 -0 -0 -40 -105 -77 -23 -7 -4 -9 -17 -36 -88 -62 -25 -13 -11 -25 -12 -8 -148 -82 -36 -136 -124 -129 -119
-0 -0 -0 -0 -0 -0 -0 -0 -0 -0 -0 -0 -0 -0 -0 -0 -0 -0 -0 -0 -0 -0 -0 -0 -0 -0 -0 -0 -0 -0 -7 -0 -0 -82 -47 -31 -9 -47 -40 -31 -160 -48 -62 -13 -62 -33 -158 -139 -149 -184 -151 -118 -138 -124
-0 -0 -0 -0 -0 -0 -0 -0 -0 -0 -0 -0 -0 -0 -0 -0 -0 -0 -0 -0 -0 -0 -0 -0 -0 -0 -0 -0 -0 -0 -0 -0 -0 -0 -174 -70 -27 -76 -11 -14 -51 -92 -109 -30 -92 -91 -64 -92 -123 -123 -94 -74 -125 -122
-0 -0 -0 -0 -0 -0 -0 -0 -0 -0 -0 -0 -0 -0 -0 -0 -0 -0 -0 -0 -0 -0 -0 -0 -0 -0 -0 -0 -0 -0 -0 -0 -0 -0 -44 -54 -17 -133 -34 -65 -44 -30 -68 -35 -29 -50 -62 -64 -78 -76 -48 -54 -86 -104
-0 -0 -0 -0 -0 -0 -0 -0 -0 -0 -0 -0 -0 -0 -0 -0 -0 -0 -0 -0 -0 -0 -0 -0 -0 -0 -0 -0 -0 -0 -0 -0 -0 -0 -0 -24 -75 -47 -51 -47 -27 -23 -9 -22 -5 -33 -26 -19 -52 -30 -5 -17 -28 -46
-0 -0 -0 -0 -0 -0 -0 -0 -0 -0 -0 -0 -0 -0 -0 -0 -0 -0 -0 -0 -0 -0 -0 -0 -0 -0 -0 -0 -0 -0 -0 -0 -0 -0 -0 -0 -0 -13 -13 -1 -3 -7 -15 -16 -2 -33 -27 -25 -39 -25 -4 -6 -10 -16
-0 -0 -1 -0 -0 -0 -0 -0 -0 -0 -0 -0 -0 -0 -0 -0 -0 -0 -0 -0 -0 -0 -0 -0 -0 -0 -0 -0 -0 -0 -0 -0 -0 -0 -0 -0 -0 -13 -41 -16 -3 -1 -11 -22 -23 -22 -14 -25 -19 -38 -12 -30 -54 -36
-18 -10 -0 -7 -2 -0 -0 -0 -0 -0 -0 -0 -0 -0 -0 -0 -0 -0 -0 -0 -0 -0 -0 -0 -0 -0 -75 -0 -1 -0 -0 -0 -0 -0 -0 -0 -0 -0 -0 -0 -11 -18 -55 -46 -19 -8 -5 -13 -24 -33 -34 -22 -16 -14
-0 -0 -0 -0 -3 -4 -0 -0 -0 -0 -0 -0 -0 -0 -0 -0 -0 -0 -0 -0 -0 -0 -0 -0 -0 -1 -43 -7 -19 -12 -0 -0 -0 -0 -0 -0 -0 -0 -0 -0 -0 -4 -12 -5 -0 -51 -8 -1 -12 -32 -38 -59 -9 -0
-0 -0 -0 -11 -3 -4 -0 -0 -0 -0 -0 -0 -0 -0 -0 -0 -0 -0 -0 -0 -0 -0 -0 -0 -0 -0 -26 -0 -0 -3 -0 -3 -1 -0 -0 -0 -0 -0 -0 -0 -0 -0 -0 -0 -0 -0 -32 -0 -1 -5 -18 -25 -46 -2
-7 -4 -7 -3 -2 -0 -0 -1 -0 -0 -0 -0 -0 -0 -0 -0 -0 -1 -0 -0 -0 -0 -0 -0 -0 -0 -29 -2 -3 -5 -2 -8 -3 -4 -0 -1 -0 -0 -0 -0 -0 -0 -0 -24 -36 -26 -16 -11 -8 -21 -27 -35 -37 -48
-2 -5 -6 -0 -0 -0 -2 -0 -0 -0 -0 -0 -0 -0 -0 -0 -0 -0 -0 -0 -0 -0 -0 -0 -0 -0 -3 -20 -5 -15 -11 -8 -4 -3 -2 -4 -7 -13 -7 -1 -0 -0 -0 -0 -0 -0 -0 -0 -4 -70 -58 -56 -62 -73
-3 -20 -33 -0 -0 -0 -0 -0 -0 -0 -0 -0 -0 -0 -0 -0 -0 -0 -0 -0 -0 -0 -0 -0 -0 -0 -8 -11 -7 -12 -9 -3 -3 -12 -1 -3 -3 -4 -1 -0 -12 -0 -0 -0 -0 -0 -0 -0 -18 -56 -100 -96 -15 -0
-4 -0 -25 -2 -0 -10 -0 -0 -0 -0 -0 -0 -0 -0 -1 -0 -0 -0 -0 -1 -2 -1 -1 -0 -9 -1 -0 -6 -1 -9 -6 -9 -8 -5 -3 -2 -2 -0 -13 -0 -0 -0 -0 -0 -53 -62 -70 -75 -90 -102 -39 -0 -0 -0
-6 -8 -7 -11 -2 -11 -1 -0 -0 -0 -0 -0 -0 -0 -0 -0 -0 -0 -0 -0 -0 -0 -3 -2 -2 -1 -1 -8 -2 -2 -2 -4 -2 -3 -1 -21 -14 -31 -14 -19 -0 -0 -0 -45 -33 -36 -32 -0 -0 -0 -0 -0 -0 -0
-11 -4 -2 -2 -0 -0 -0 -0 -0 -0 -0 -0 -0 -0 -0 -1 -0 -0 -0 -0 -6 -1 -5 -4 -2 -5 -17 -32 -3 -1 -3 -1 -2 -0 -2 -1 -5 -1 -34 -11 -78 -63 -51 -25 -30 -0 -0 -0 -0 -0 -1 -1 -0 -1
-0 -1 -0 -0 -0 -0 -0 -0 -0 -0 -1 -1 -0 -0 -1 -1 -0 -1 -0 -1 -18 -1 -1 -1 -10 -8 -1 -1 -8 -3 -2 -5 -1 -1 -1 -9 -23 -0 -0 -0 -0 -0 -3 -0 -1 -10 -6 -7 -1 -6 -15 -7 -7 -1
-0 -15 -1 -0 -0 -3 -0 -0 -0 -26 -8 -1 -0 -1 -1 -2 -1 -0 -0 -0 -7 -1 -8 -1 -1 -7 -1 -3 -1 -8 -0 -1 -2 -3 -6 -2 -0 -0 -0 -0 -0 -2 -2 -12 -5 -1 -36 -0 -0 -0 -0 -0 -0 -0
-2 -2 -0 -0 -0 -0 -0 -0 -4 -1 -1 -1 -1 -2 -1 -0 -1 -7 -13 -0 -0 -37 -15 -1 -3 -2 -3 -6 -1 -1 -1 -1 -1 -1 -0 -5 -0 -0 -0 -1 -0 -0 -0 -0 -0 -0 -0 -0 -0 -0 -1 -0 -0 -0
-4 -3 -0 -0 -10 -6 -3 -0 -0 -10 -0 -1 -0 -1 -1 -2 -39 -39 -0 -0 -0 -1 -2 -1 -1 -0 -2 -1 -3 -2 -6 -0 -0 -0 -0 -0 -0 -3 -3 -16 -2 -1 -0 -0 -0 -3 -1 -0 -4 -0 -1 -0 -0 -0
-0 -0 -0 -5 -11 -15 -3 -12 -25 -11 -1 -0 -1 -1 -3 -7 -14 -0 -2 -0 -1 -0 -1 -1 -1 -3 -18 -16 -17 -1 -0 -0 -0 -0 -0 -16 -0 -0 -0 -0 -0 -0 -3 -3 -6 -0 -0 -0 -0 -0 -0 -0 -0 -0
-0 -0 -0 -13 -38 -20 -9 -31 -5 -1 -2 -1 -1 -1 -0 -1 -3 -5 -0 -1 -1 -1 -0 -1 -0 -0 -0 -0 -0 -0 -0 -0 -0 -1 -1 -0 -5 -2 -1 -5 -1 -1 -3 -0 -0 -1 -0 -1 -0 -0 -0 -0 -0 -0
-0 -19 -62 -43 -19 -43 -11 -15 -0 -0 -0 -1 -0 -0 -0 -1 -1 -0 -0 -0 -0 -0 -0 -0 -0 -0 -0 -0 -0 -0 -0 -0 -2 -0 -8 -8 -0 -6 -2 -0 -2 -17 -14 -0 -0 -4 -3 -6 -3 -0 -28 -27 -1 -3
-0 -0 -44 -32 -22 -3 -5 -0 -0 -1 -3 -3 -2 -1 -0 -0 -0 -0 -0 -0 -0 -0 -0 -0 -0 -0 -0 -4 -1 -0 -1 -19 -3 -12 -7 -0 -2 -1 -1 -1 -1 -1 -11 -3 -6 -7 -4 -1 -8 -11 -3 -1 -1 -1
-0 -0 -0 -0 -0 -0 -0 -0 -0 -0 -1 -0 -0 -0 -0 -0 -0 -0 -0 -0 -1 -0 -0 -0 -6 -1 -14 -1 -0 -18 -6 -3 -14 -3 -18 -1 -1 -1 -4 -1 -1 -1 -4 -2 -3 -9 -1 -1 -2 -1 -2 -1 -1 -1
-0 -0 -2 -0 -0 -0 -0 -1 -0 -0 -0 -0 -0 -0 -0 -0 -0 -0 -0 -0 -6 -14 -0 -0 -7 -18 -12 -6 -9 -0 -0 -1 -0 -1 -1 -1 -2 -1 -0 -1 -12 -3 -2 -6 -1 -1 -1 -1 -1 -0 -1 -7 -2 -2
-0 -0 -0 -0 -0 -0 -0 -0 -0 -0 -0 -0 -0 -0 -3 -11 -0 -4 -12 -10 -13 -1 -0 -8 -0 -0 -7 -24 -0 -0 -4 -3 -3 -2 -1 -1 -1 -9 -2 -1 -0 -5 -8 -6 -1 -2 -1 -1 -3 -3 -1 -2 -1 -1
-0 -0 -0 -0 -0 -0 -0 -0 -0 -0 -0 -0 -0 -0 -1 -3 -0 -3 -16 -0 -0 -1 -13 -1 -0 -15 -30 -0 -1 -3 -2 -1 -10 -3 -3 -2 -2 -2 -4 -1 -1 -16 -18 -29 -25 -3 -2 -1 -3 -4 -1 -2 -2 -1
-0 -0 -1 -0 -0 -0 -0 -0 -1 -4 -0 -0 -0 -0 -0 -3 -1 -20 -9 -0 -6 -6 -0 -4 -9 -23 -44 -48 -24 -2 -1 -1 -1 -1 -1 -1 -1 -1 -1 -2 -3 -2 -1 -3 -0 -0 -17 -11 -15 -5 -3 -2 -3 -1
-0 -0 -0 -0 -0 -0 -1 -0 -1 -1 -0 -1 -0 -2 -2 -3 -4 -1 -0 -0 -2 -4 -10 -16 -28 -30 -14 -8 -3 -4 -3 -3 -2 -2 -1 -1 -1 -2 -2 -2 -1 -2 -1 -1 -2 -6 -0 -4 -1 -2 -4 -2 -1 -1
-0 -0 -0 -0 -0 -0 -0 -0 -3 -7 -4 -1 -1 -1 -0 -0 -0 -17 -5 -9 -23 -20 -9 -20 -3 -1 -1 -1 -1 -0 -1 -9 -18 -20 -16 -3 -1 -2 -2 -1 -2 -2 -1 -3 -2 -1 -2 -2 -1 -1 -2 -1 -2 -1
-0 -0 -0 -0 -0 -6 -12 -8 -7 -4 -4 -4 -1 -3 -10 -5 -2 -6 -0 -1 -2 -1 -8 -11 -1 -2 -16 -23 -27 -23 -63 -25 -18 -24 -39 -20 -17 -2 -3 -2 -2 -2 -3 -2 -2 -3 -2 -2 -3 -2 -2 -1 -0 -0
-8 -6 -2 -0 -1 -0 -1 -0 -0 -0 -1 -1 -0 -1 -1 -1 -0 -0 -26 -42 -28 -27 -28 -13 -21 -31 -60 -75 -63 -60 -38 -53 -0 -0 -0 -0 -0 -42 -7 -2 -5 -3 -2 -2 -2 -1 -0 -0 -0 -0 -0 -0 -0 -0
Wind_Speed
13 11 18 18 16 17 17 16 18 18 18 18 18 19 19 19 20 17 15 17 16 17 18 15 15 16 17 17 18 20 19 18 19 21 23 21 26 19 22 18 21 23 23 20 20 21 19 15 13 16 14 13 14 12
14 13 19 18 15 14 16 16 17 18 18 18 18 18 19 19 19 19 15 16 18 15 18 16 23 26 23 21 20 18 18 19 18 20 20 23 22 21 22 22 20 23 23 22 21 19 16 17 16 16 17 17 16 15
15 12 12 14 13 13 15 15 16 17 18 18 18 18 19 19 19 19 18 18 17 17 16 14 14 15 16 18 19 18 16 19 19 17 20 22 24 22 21 21 22 21 20 22 23 21 20 19 18 19 18 20 19 16
15 15 11 11 9 11 13 16 16 16 18 19 19 19 19 19 20 20 18 17 16 17 17 14 14 14 15 15 16 17 17 18 18 21 20 23 24 21 21 20 23 21 21 23 23 20 21 19 17 17 17 17 15 14
16 14 12 10 10 11 14 15 17 16 17 19 18 18 19 20 21 20 16 15 16 16 18 15 15 14 15 12 12 14 17 19 20 23 23 24 22 23 21 21 23 21 23 25 24 22 23 20 18 17 15 14 14 13
17 16 13 12 13 13 15 17 17 16 16 18 18 19 19 20 21 18 17 14 15 17 16 16 15 13 14 11 11 14 18 20 21 22 24 23 22 22 25 25 20 21 20 21 21 20 19 17 16 15 14 14 14 14
14 14 14 14 14 15 17 18 17 14 15 17 18 18 20 21 20 19 18 16 15 18 16 16 13 12 13 12 11 15 17 20 21 22 24 26 24 24 27 30 22 20 19 19 18 17 16 16 16 14 14 14 14 14
12 13 15 15 15 14 15 16 14 13 15 15 17 20 21 23 21 19 16 17 17 16 14 15 13 11 13 11 11 14 18 19 20 23 23 25 22 26 30 28 23 23 23 22 19 18 18 16 15 14 14 14 14 15
12 11 11 12 13 15 14 14 11 11 13 15 17 20 15 16 17 16 15 11 13 16 16 13 13 11 13 12 13 13 17 21 18 23 23 21 23 27 26 26 27 27 26 27 26 24 22 20 17 15 13 15 15 17
14 13 13 12 14 14 13 12 11 10 12 14 15 14 14 14 15 13 16 17 15 12 13 13 14 12 13 11 11 14 16 20 21 19 18 24 26 19 20 21 22 24 26 27 29 30 27 23 19 17 17 18 19 19
10 14 18 15 13 13 13 11 9 7 10 11 13 15 12 12 15 17 17 17 13 15 10 13 15 14 12 11 10 13 17 17 19 16 20 22 24 18 18 18 18 18 18 18 18 20 21 20 20 19 18 19 20 21
13 9 8 7 8 10 8 8 9 12 11 11 12 9 10 15 16 17 17 15 14 13 10 11 12 10 12 11 13 14 19 18 21 12 18 22 18 16 15 15 16 17 17 17 17 18 18 19 20 21 22 22 23 24
16 13 10 8 7 6 5 5 11 12 8 8 11 13 15 15 16 18 15 14 12 8 10 12 11 9 8 10 16 19 20 21 17 18 18 17 12 12 13 14 16 17 19 20 20 21 22 22 24 25 27 27 28 28
20 16 13 10 8 7 6 7 10 14 15 13 13 16 18 17 20 16 14 10 10 11 13 13 9 8 10 14 19 21 19 20 20 21 17 13 10 11 13 16 18 20 22 23 24 24 25 26 28 29 30 31 32 33
19 21 18 14 10 9 9 11 17 18 15 14 15 19 18 17 15 14 15 14 14 16 14 8 10 16 21 21 20 20 20 21 20 18 15 10 10 12 15 18 20 22 23 24 24 25 26 27 29 31 31 31 32 33
20 16 23 20 13 11 15 15 19 19 18 17 17 17 15 15 13 13 13 14 16 14 11 16 18 20 20 20 20 21 19 20 18 13 10 10 11 14 18 20 22 24 24 24 25 26 28 28 29 30 30 29 30 30
20 22 27 18 16 12 19 19 22 21 20 19 18 18 18 16 15 14 16 17 16 17 20 20 20 19 18 20 21 20 20 15 10 11 13 15 18 20 21 23 24 24 25 25 25 26 25 25 25 26 27 27 26 26
26 23 21 19 18 18 21 22 22 22 23 22 19 16 17 17 18 17 18 18 19 21 20 19 17 19 19 20 19 16 12 11 14 16 18 20 21 22 23 24 24 22 21 22 22 24 22 22 24 23 22 21 21 22
24 20 23 25 20 19 20 23 21 23 24 20 21 19 19 18 18 18 18 17 20 21 21 20 20 19 19 18 17 14 14 15 18 19 22 22 23 24 24 23 21 19 19 19 22 22 20 20 21 21 21 21 22 23
17 22 26 25 23 18 19 21 20 21 22 21 20 20 19 18 18 18 17 17 19 19 20 20 19 17 17 15 16 16 18 19 21 23 24 22 24 24 23 18 16 18 18 20 20 19 18 18 19 19 20 20 20 20
30 24 19 20 21 18 18 20 22 21 19 20 20 18 20 19 19 18 18 17 20 20 20 19 18 16 17 17 18 20 21 22 23 23 23 23 23 22 18 13 16 18 18 19 17 18 18 16 18 19 18 18 17 17
24 22 21 18 19 19 20 19 20 18 19 19 19 19 18 20 19 19 19 22 21 19 19 19 19 20 21 22 23 23 23 23 22 22 21 20 18 15 14 14 14 15 16 17 16 17 17 15 17 17 16 16 17 17
20 17 19 19 20 20 20 19 20 18 17 17 18 18 17 18 18 19 21 21 20 20 20 20 20 21 22 22 22 22 21 21 19 19 18 18 16 16 16 7 3 4 15 16 21 21 21 19 21 21 21 20 20 21
16 18 20 20 20 21 20 21 19 18 17 18 19 18 18 17 17 20 21 21 20 20 20 19 20 21 19 18 18 18 17 17 17 18 19 19 21 20 20 11 20 21 22 23 22 22 22 23 22 21 20 21 21 21
18 18 19 21 21 22 22 22 20 18 18 18 18 18 18 17 18 19 20 19 18 19 20 20 20 19 19 17 17 17 18 17 18 17 20 21 23 26 23 20 17 19 21 21 20 20 20 20 20 21 21 22 22 22
19 18 19 19 21 21 20 22 20 20 19 19 19 18 17 18 18 19 18 18 19 19 20 20 21 20 21 19 19 18 16 15 15 15 26 23 20 13 13 17 17 19 18 16 18 19 19 19 19 19 19 19 19 19
18 19 18 17 18 18 20 20 20 20 19 19 19 19 18 18 19 18 17 18 18 19 19 18 20 21 21 23 19 16 10 15 16 5 20 20 10 18 16 12 10 15 9 15 15 14 14 15 15 16 18 19 18 16
17 18 19 19 19 20 19 19 19 19 19 18 18 19 18 18 17 17 16 17 17 17 17 20 21 23 26 22 17 12 15 14 11 18 19 18 17 16 15 14 13 12 14 14 15 15 14 13 14 15 16 19 20 19
18 18 18 18 19 19 20 19 18 19 18 18 17 17 18 17 17 17 17 18 18 18 18 18 20 22 21 21 20 19 17 19 15 12 15 14 14 14 14 15 15 15 15 16 19 20 19 16 15 16 16 18 17 17
18 19 18 17 18 18 18 19 18 16 16 18 19 18 17 17 17 18 20 20 21 23 23 21 24 23 25 24 22 19 20 18 15 15 14 16 16 14 13 13 13 14 14 15 17 17 16 14 14 14 15 16 16 17
19 20 18 17 15 15 16 17 17 16 16 16 18 17 16 18 17 19 21 22 23 24 23 21 14 14 15 16 14 16 8 13 12 17 17 10 13 13 13 13 13 13 14 15 17 18 19 15 15 17 19 20 20 18
19 19 18 19 19 19 20 20 19 17 13 12 12 12 10 8 5 23 26 28 27 24 20 16 13 13 16 17 17 18 19 19 19 16 14 11 8 8 10 10 12 14 14 15 16 17 17 17 19 20 19 18 19 19
17 17 18 18 19 20 18 19 18 17 21 22 21 14 7 6 8 10 25 26 22 18 17 17 17 16 17 17 15 16 15 15 15 15 15 16 16 12 9 10 12 13 14 15 16 16 17 19 19 19 18 19 19 19
Wind_Direction
214 224 247 255 265 268 277 283 281 290 299 300 303 307 314 318 318 314 322 317 318 308 309 323 319 311 310 310 301 295 285 285 279 267 262 261 260 264 261 266 257 255 254 256 263 262 271 288 279 273 291 303 309 312
207 224 244 251 258 268 274 281 287 288 295 296 297 302 309 314 312 305 319 320 307 321 311 323 285 279 286 291 294 301 286 284 282 274 269 265 263 265 262 259 264 257 261 262 265 270 289 286 286 294 294 294 305 310
199 211 234 244 253 263 272 281 283 285 288 290 293 299 303 308 310 306 308 311 312 311 323 339 337 328 309 292 286 290 294 287 278 293 276 268 261 265 261 263 261 264 270 268 270 276 285 293 292 293 301 294 302 309
208 185 211 230 242 262 274 275 281 286 284 284 292 301 297 301 303 301 305 315 318 311 306 338 342 332 323 309 291 287 295 297 292 278 277 268 263 264 267 271 265 270 272 271 276 283 284 288 303 305 302 305 318 331
205 200 202 217 239 257 267 272 274 282 282 284 299 299 294 298 297 297 308 314 318 310 305 326 332 336 329 328 311 293 292 288 281 270 265 269 273 266 268 272 272 273 274 273 278 290 286 292 299 302 305 314 326 330
220 208 210 228 242 254 262 266 272 281 288 289 298 303 303 307 300 291 295 315 317 315 313 317 334 329 329 340 325 307 293 287 282 276 266 267 276 275 266 267 279 280 284 286 290 298 296 299 301 303 308 313 317 318
205 212 221 234 243 251 258 263 272 284 289 293 301 309 306 299 295 286 287 302 311 310 313 315 335 333 319 327 329 309 303 287 281 278 274 269 271 270 267 264 281 279 287 291 293 298 300 299 299 301 304 311 314 318
221 226 228 234 241 250 258 264 274 281 286 301 303 299 298 287 284 283 293 292 297 306 319 319 333 338 318 328 326 318 299 293 283 278 279 274 280 270 266 269 279 281 281 281 286 291 297 302 305 308 311 310 309 313
229 222 225 233 240 250 257 264 271 281 288 296 299 298 315 297 282 288 296 313 307 303 307 324 328 340 326 319 323 330 304 288 293 276 275 279 272 266 271 274 275 276 275 273 275 280 285 289 295 301 307 304 304 306
233 232 234 240 244 248 256 258 265 280 288 297 299 305 300 290 285 286 283 284 298 310 314 317 316 332 325 335 324 317 307 288 285 280 283 273 270 283 287 287 288 285 281 279 273 274 277 280 288 293 296 301 302 305
235 240 241 244 245 251 249 250 260 281 293 296 291 289 312 284 273 272 275 276 296 300 320 309 301 315 335 334 326 314 298 298 288 294 277 273 273 278 285 289 295 302 302 301 293 290 286 285 288 291 296 300 302 305
237 227 228 235 243 243 238 241 251 264 282 290 295 318 306 273 272 268 268 282 291 301 330 320 313 316 339 337 314 308 283 289 279 313 286 278 280 285 288 292 296 302 304 306 305 300 296 294 292 294 296 300 303 305
237 231 225 211 211 211 204 231 246 261 272 291 285 273 272 269 265 260 266 280 295 336 316 312 328 346 352 330 295 282 278 278 294 293 289 296 304 293 290 296 299 303 300 300 300 299 298 296 295 294 293 295 297 298
229 224 217 205 198 205 213 229 238 241 249 267 265 258 258 262 256 266 270 298 310 301 296 313 346 354 326 289 268 261 276 276 279 274 290 309 314 302 299 299 299 298 299 298 298 298 297 297 296 295 295 295 295 295
224 224 219 214 198 205 217 230 229 233 254 258 264 254 257 264 266 273 272 278 277 275 296 3 310 265 229 231 244 256 263 261 264 281 299 336 322 304 294 294 296 297 299 300 303 303 303 303 301 300 299 299 298 297
212 215 224 217 200 201 218 223 226 233 243 251 259 257 258 261 269 272 274 275 266 280 287 251 241 230 231 230 241 232 250 233 264 305 318 330 318 302 291 292 297 298 299 301 302 304 307 307 304 303 304 305 303 301
194 220 209 187 184 187 210 219 219 228 236 243 248 247 249 257 262 268 261 256 260 251 236 230 242 244 242 236 235 249 241 281 338 309 297 296 276 275 277 279 289 294 293 294 302 306 309 312 313 312 309 310 314 311
188 168 141 154 175 195 210 215 219 227 228 232 234 242 246 251 253 256 253 250 247 238 239 242 250 242 245 244 250 277 310 328 297 289 286 282 277 277 286 295 305 312 314 321 323 322 324 327 325 327 330 330 333 329
162 155 164 176 189 198 208 212 225 220 221 226 231 236 239 243 246 245 248 254 241 243 244 248 246 259 270 280 287 318 326 320 299 302 291 296 299 295 304 307 314 323 336 338 333 329 331 333 334 331 328 328 330 327
144 163 172 180 188 202 206 212 220 218 214 220 224 231 236 237 237 239 245 245 237 243 246 251 266 284 284 293 302 311 312 312 305 294 295 307 309 304 298 321 329 326 327 326 345 358 357 346 332 331 329 321 324 329
159 173 188 193 193 202 206 206 203 206 211 214 220 229 224 226 230 238 239 246 242 247 254 271 284 297 294 298 302 297 298 297 280 272 271 268 285 303 319 337 329 300 304 330 12 27 355 300 312 331 334 333 341 354
166 177 183 196 191 193 196 201 199 204 206 206 206 207 216 220 231 232 242 237 244 260 270 271 269 274 279 278 278 279 281 277 274 268 265 263 272 302 283 299 318 350 343 350 15 8 333 297 335 3 9 3 5 4
171 183 184 187 188 188 190 198 197 204 207 210 212 212 221 223 228 237 230 236 248 254 256 261 275 283 268 272 265 265 266 258 236 224 220 206 228 218 213 215 185 125 86 95 113 82 77 112 41 53 61 57 48 36
182 178 175 180 185 185 191 192 199 198 201 202 205 207 214 224 235 227 229 234 245 255 267 275 260 251 262 246 224 228 235 228 214 200 185 168 154 155 156 189 151 89 87 97 84 75 71 72 82 81 79 63 53 37
169 173 176 176 185 184 185 187 193 198 196 198 203 209 215 224 222 224 226 237 256 254 248 244 230 218 216 218 217 206 195 194 185 192 171 161 149 109 79 65 39 54 79 73 75 78 72 71 54 53 51 44 41 35
165 175 177 179 182 187 191 191 196 197 199 201 206 214 217 219 218 219 231 246 239 225 212 209 209 209 202 204 195 188 198 203 196 184 140 150 148 114 64 50 58 96 62 49 76 67 69 70 60 59 55 58 54 46
166 173 181 190 189 190 189 194 197 199 201 199 204 208 210 210 204 211 234 217 203 207 216 221 211 203 201 193 195 198 229 198 195 93 162 165 360 86 164 213 256 7 128 121 120 134 125 83 74 51 22 6 17 30
172 174 174 181 187 190 191 194 195 196 198 203 198 196 198 192 193 196 195 200 209 210 212 208 204 193 183 192 202 223 209 218 239 187 158 149 156 179 190 241 334 250 154 4 111 91 100 100 77 60 49 22 12 18
166 169 176 178 182 187 187 190 192 191 203 200 207 204 199 199 202 210 211 195 189 191 185 186 187 188 192 192 195 199 204 184 90 341 201 183 100 91 75 73 63 70 70 57 38 16 16 40 40 32 30 14 20 16
157 163 172 177 179 181 185 187 194 206 208 211 207 205 204 198 192 208 197 189 179 177 176 176 177 176 165 161 165 194 173 178 215 244 324 7 20 31 60 68 67 64 51 42 27 32 40 48 41 35 25 18 16 8
143 146 158 172 180 181 182 182 182 185 185 183 176 182 192 183 185 198 192 185 178 173 182 186 210 229 227 226 254 234 284 336 294 258 216 46 35 35 40 44 46 38 27 20 13 13 11 23 22 14 7 4 6 8
144 141 144 143 144 150 152 150 152 158 172 175 180 176 182 183 195 161 177 170 158 180 202 231 265 267 243 235 235 229 248 262 297 343 20 42 107 96 61 50 29 22 23 20 15 14 19 15 9 6 9 10 8 6
145 145 145 148 148 147 153 153 158 163 141 130 145 183 235 288 12 232 172 176 200 222 226 229 236 255 263 257 283 335 354 354 356 2 4 7 6 17 49 38 30 29 25 22 20 22 18 12 9 8 10 9 8 7